Regional Weather Roundup
Issued by NWS

Home | Current Version | Previous Version | Graphics & Text | Print | Product List | Glossary On
Versions: 1 2 3 4 5 6 7 8 9 10 11 12 13 14 15 16 17 18 19 20 21 22 23 24 25 26 27 28 29 30 31 32 33 34 35 36 37 38 39 40 41 42 43 44 45 46 47 48 49 50
000
ASUS45 KSLC 282310
RWRUT

UTAH REGIONAL WEATHER ROUNDUP
NATIONAL WEATHER SERVICE SALT LAKE CITY UT
500 PM MDT MON JUL 28 2014

UTZ001>011-023>025-290000-

NORTHERN UTAH

CITY           SKY/WX    TMP DP  RH WIND       PRES   REMARKS
HILL AFB       LGT RAIN  78  56  48 E14       30.23R
LOGAN          CLOUDY    89  50  26 S7        30.14S
OGDEN          LGT RAIN  76  57  51 SE20G32   30.18R
PROVO AIRPORT  PTSUNNY   75  57  53 S17G29    30.21
SALT LAKE CITY CLOUDY    80  53  39 E17G25    30.19R
VERNAL         CLOUDY    81  52  36 SW13      30.23S
WENDOVER       CLOUDY    90  45  20 W15       30.12F
HEBER CITY     CLOUDY    70  59  68 E5        30.32F THUNDER
WEST JORDAN    CLOUDY    82  59  44 E6G16     30.23R

$$

UTZ012>022-026-027-290000-

SOUTHERN UTAH

CITY           SKY/WX    TMP DP  RH WIND       PRES   REMARKS
BRYCE CANYON   CLOUDY    68  53  58 W12       30.43R
CEDAR CITY     PTSUNNY   83  52  34 W15G22    30.26F
MILFORD        PTSUNNY   86  50  28 S20       30.21F
MOAB/CYNLANDS  SUNNY     87  51  28 VRB5      30.16F
PRICE          CLOUDY    83  47  28 W7        30.28F
ST GEORGE      CLOUDY    93  52  24 W13       30.07F HX  90

$$

REGIONAL REPORTS     COLORADO/ARIZONA

CITY           SKY/WX    TMP DP  RH WIND       PRES   REMARKS
CRAIG, CO      CLOUDY    75  50  41 SW14      30.26S
GRAND JUNCTION MOSUNNY   86  52  30 W10       30.19F
RIFLE          LGT RAIN  79  50  36 NW9       30.26R
MONTROSE       PTSUNNY   83  49  30 CALM      30.29F
CORTEZ         MOSUNNY   85  55  35 S12       30.29S THUNDER
PAGE, AZ       CLOUDY    91  49  23 W6G16     30.15F
GRAND CANYON   CLOUDY    67  54  63 NW8       30.41S
KINGMAN        PTSUNNY   89  57  33 E20       30.11F
FLAGSTAFF      CLOUDY    68  52  56 W8        30.41F

$$

REGIONAL REPORTS    NEVADA/IDAHO/WYOMING

CITY           SKY/WX    TMP DP  RH WIND       PRES   REMARKS
LAS VEGAS, NV  CLOUDY    92  60  34 S13       30.00S HX  91
ELY            CLOUDY    65  57  75 NW6       30.35F
ELKO           CLOUDY    81  47  30 SE17G30   30.18R
POCATELLO, ID  SUNNY     88  43  20 W14       30.16F
BURLEY         PTSUNNY   87  51  28 E12       30.13F
EVANSTON, WY   CLOUDY    66  50  56 S22G36    30.38R
ROCK SPRINGS   PTSUNNY   87  26  11 E12G18    30.28F

$$



USA.gov is the U.S. government's official web portal to all federal, state and local government web resources and services.